Flag for Norway Weather past 2 weeks in Namsos, Norway

Now
53 °F

Cool.


Feels Like: 52 °F
Forecast: 46 / 61 °F
Wind: 3 mph from Northeast

Location: Buholmrasa Fyr

Current Time: Sep 18, 2014 at 2:00:30 AM

Latest Report: Sep 18, 2014 at 1:00 AM


Visibility: N/A

Pressure: 30.19 "Hg

Humidity: 86%

Dew point: 49 °F

Location of NamsosLocation

Historic Weather in Namsos — Graph

°F

Namsos temperature yesterday

Maximum temperature yesterday: 57 °F (at 4:00 PM)
Minimum temperature yesterday: 51 °F (at 7:00 AM)
Average temperature yesterday: 54 °F

Past Weeks' High & Low Weather Summary

 TemperatureHumidityPressure
High69 °F (Sep 7, 4:00 PM)96% (Sep 11, 7:00 AM)30.53 "Hg (Sep 11, 7:00 AM)
Low51 °F (Sep 15, 3:00 AM)51% (Sep 7, 1:00 PM)29.80 "Hg (Sep 8, 8:00 PM)
Average58 °F80%30.17 "Hg
* Reported Midnight between Sep 2 and Sep 3 — Midnight between Sep 17 and Sep 18, Namsos, Weather by CustomWeather, © 2014

Note: Actual official high and low records may vary slightly from our data, if they occured in-between our weather recording intervals... More about our weather records

Advertising

Namsos weather history for previous 24 hours

 ConditionsComfort  
Time TempWeatherWind HumidityBarometerVisibility
12:00 AM
Sep 18
53 °FCool.6 mph89%30.19 "HgN/A
11:00 PM
Sep 17
54 °FCool.3 mph86%30.20 "HgN/A
10:00 PM54 °FCool.7 mph87%30.21 "HgN/A
9:00 PM54 °FCool.8 mph86%30.20 "HgN/A
8:00 PM55 °FCool.7 mph86%30.20 "HgN/A
7:00 PM56 °FCool.8 mph85%30.21 "HgN/A
6:00 PM56 °FCool.9 mph84%30.21 "HgN/A
5:00 PM57 °FCool.8 mph80%30.22 "HgN/A
4:00 PM57 °FCool.9 mph82%30.22 "HgN/A
3:00 PM56 °FCool.9 mph87%30.23 "HgN/A
2:00 PM54 °FCool.9 mph90%30.24 "HgN/A
1:00 PM54 °FCool.8 mph90%30.24 "HgN/A
12:00 PM53 °FCool.8 mph91%30.25 "HgN/A
11:00 AM52 °FCool.6 mph94%30.26 "HgN/A
10:00 AM51 °FCool.7 mph94%30.26 "HgN/A
9:00 AM52 °FCool.7 mph93%30.25 "HgN/A
8:00 AM52 °FCool.5 mph92%30.26 "HgN/A
7:00 AM51 °FCool.1 mph94%30.26 "HgN/A
6:00 AM52 °FCool.3 mph95%30.25 "HgN/A
5:00 AM52 °FCool.6 mph93%30.25 "HgN/A
4:00 AM53 °FCool.5 mph92%30.25 "HgN/A
3:00 AM53 °FCool.6 mph93%30.26 "HgN/A
2:00 AM54 °FCool.3 mph92%30.27 "HgN/A
Weather by CustomWeather, © 2014

See weather overviewHow to use our weather pages